JZA8110 CYWG-CYOW

Flight info

Callsign JZA8110
Flight time 2h 39m
Altitude 27000
Route RORMA DCT AXOMA DCT SIDPO DCT DEGVA DCT BESEL DCT SMARE MEECH4
Aircraft DH8D/M-SDE2E3FGRY/H

Departure

Time 2026-05-06 01:36
Airport Winnipeg / James Armstrong Richardson International Airport (CYWG)

Arrival

Time 2026-05-06 04:15
Airport Ottawa Macdonald-Cartier International Airport (CYOW)
Time Latitude Longitude Altitude Speed Heading
2026-05-06 01:14 49.90542 -97.22676 769 ft 0 kts 15°
2026-05-06 01:28 49.90545 -97.22674 769 ft 0 kts 34°
2026-05-06 01:28 49.90546 -97.22670 769 ft 0 kts 67°
2026-05-06 01:29 49.90539 -97.22658 769 ft 3 kts 166°
2026-05-06 01:29 49.90525 -97.22665 769 ft 0 kts 207°
2026-05-06 01:29 49.90524 -97.22665 769 ft 0 kts 207°
2026-05-06 01:30 49.90504 -97.22685 769 ft 6 kts 228°
2026-05-06 01:30 49.90485 -97.22756 769 ft 6 kts 257°
2026-05-06 01:30 49.90467 -97.22843 770 ft 8 kts 247°
2026-05-06 01:30 49.90432 -97.22892 770 ft 6 kts 204°
2026-05-06 01:31 49.90388 -97.22920 770 ft 7 kts 202°
2026-05-06 01:31 49.90327 -97.22954 770 ft 10 kts 200°
2026-05-06 01:31 49.90256 -97.22990 770 ft 10 kts 198°
2026-05-06 01:31 49.90191 -97.23042 770 ft 10 kts 234°
2026-05-06 01:32 49.90165 -97.23149 770 ft 11 kts 236°
2026-05-06 01:32 49.90097 -97.23159 770 ft 11 kts 140°
2026-05-06 01:32 49.90020 -97.23056 769 ft 15 kts 139°
2026-05-06 01:32 49.89936 -97.22941 768 ft 16 kts 139°
2026-05-06 01:33 49.89854 -97.22807 767 ft 17 kts 130°
2026-05-06 01:33 49.89777 -97.22662 767 ft 17 kts 129°
2026-05-06 01:33 49.89701 -97.22536 766 ft 12 kts 163°
2026-05-06 01:33 49.89641 -97.22593 766 ft 9 kts 230°
2026-05-06 01:34 49.89601 -97.22661 766 ft 7 kts 227°
2026-05-06 01:34 49.89571 -97.22715 766 ft 6 kts 229°
2026-05-06 01:34 49.89545 -97.22768 766 ft 6 kts 246°
2026-05-06 01:34 49.89553 -97.22830 766 ft 0 kts 317°
2026-05-06 01:35 49.89554 -97.22831 767 ft 1 kts 317°
2026-05-06 01:35 49.89668 -97.22988 767 ft 58 kts 319°
2026-05-06 01:35 49.90156 -97.23660 773 ft 125 kts 319°
2026-05-06 01:35 49.90896 -97.24651 926 ft 150 kts 320°
2026-05-06 01:36 49.91736 -97.25793 1256 ft 170 kts 318°
2026-05-06 01:36 49.92653 -97.27080 1684 ft 186 kts 319°
2026-05-06 01:36 49.93646 -97.28484 2066 ft 201 kts 319°
2026-05-06 01:36 49.94707 -97.30000 2472 ft 214 kts 319°
2026-05-06 01:37 49.95803 -97.31591 2823 ft 219 kts 319°
2026-05-06 01:37 49.96933 -97.33253 2948 ft 229 kts 319°
2026-05-06 01:37 49.98071 -97.34944 2975 ft 217 kts 318°
2026-05-06 01:37 49.99125 -97.36534 3241 ft 209 kts 319°
2026-05-06 01:38 50.00234 -97.37945 3581 ft 206 kts 336°
2026-05-06 01:38 50.01615 -97.38031 3918 ft 204 kts 20°
2026-05-06 01:38 50.02593 -97.36481 4264 ft 212 kts 65°
2026-05-06 01:38 50.02747 -97.34167 4653 ft 221 kts 88°
2026-05-06 01:39 50.02632 -97.31764 5028 ft 226 kts 92°
2026-05-06 01:39 50.02435 -97.29316 5399 ft 232 kts 94°
2026-05-06 01:39 50.02174 -97.26787 5835 ft 242 kts 96°
2026-05-06 01:39 50.01866 -97.24192 6362 ft 248 kts 97°
2026-05-06 01:40 50.01523 -97.21545 6893 ft 253 kts 98°
2026-05-06 01:40 50.01153 -97.18855 7425 ft 258 kts 98°
2026-05-06 01:40 50.00763 -97.16115 7954 ft 263 kts 99°
2026-05-06 01:40 50.00355 -97.13332 8487 ft 268 kts 99°
2026-05-06 01:41 49.99930 -97.10502 9022 ft 272 kts 99°
2026-05-06 01:41 49.99506 -97.07711 9543 ft 276 kts 99°
2026-05-06 01:41 49.99059 -97.04808 10068 ft 279 kts 99°
2026-05-06 01:41 49.98607 -97.01888 10589 ft 278 kts 99°
2026-05-06 01:42 49.98155 -96.98988 11100 ft 277 kts 99°
2026-05-06 01:42 49.97701 -96.96100 11628 ft 276 kts 99°
2026-05-06 01:42 49.97247 -96.93229 12153 ft 275 kts 99°
2026-05-06 01:42 49.96795 -96.90368 12675 ft 274 kts 99°
2026-05-06 01:43 49.96341 -96.87508 13189 ft 273 kts 99°
2026-05-06 01:43 49.95887 -96.84663 13716 ft 272 kts 99°
2026-05-06 01:43 49.95434 -96.81822 14215 ft 273 kts 99°
2026-05-06 01:43 49.94978 -96.78972 14687 ft 273 kts 99°
2026-05-06 01:44 49.94520 -96.76116 15156 ft 274 kts 99°
2026-05-06 01:44 49.94065 -96.73260 15632 ft 273 kts 98°
2026-05-06 01:44 49.93851 -96.70371 16105 ft 268 kts 86°
2026-05-06 01:44 49.93831 -96.67502 16573 ft 267 kts 85°
2026-05-06 01:45 49.93817 -96.64637 17042 ft 266 kts 85°
2026-05-06 01:45 49.93801 -96.61792 17509 ft 264 kts 85°
2026-05-06 01:45 49.93782 -96.58969 17970 ft 261 kts 85°
2026-05-06 01:45 49.93762 -96.56170 18373 ft 261 kts 85°
2026-05-06 01:46 49.93741 -96.53357 18718 ft 262 kts 85°
2026-05-06 01:46 49.93718 -96.50532 19056 ft 263 kts 85°
2026-05-06 01:46 49.93693 -96.47708 19394 ft 263 kts 85°
2026-05-06 01:46 49.93667 -96.44882 19733 ft 263 kts 85°
2026-05-06 01:47 49.93640 -96.42061 20065 ft 262 kts 85°
2026-05-06 01:47 49.93612 -96.39251 20371 ft 262 kts 85°
2026-05-06 01:47 49.93585 -96.36407 20599 ft 267 kts 85°
2026-05-06 01:47 49.93562 -96.33506 20811 ft 272 kts 86°
2026-05-06 01:48 49.93538 -96.30557 21024 ft 275 kts 86°
2026-05-06 01:48 49.93513 -96.27568 21242 ft 279 kts 86°
2026-05-06 01:48 49.93487 -96.24545 21457 ft 283 kts 86°
2026-05-06 01:48 49.93458 -96.21485 21667 ft 286 kts 87°
2026-05-06 01:49 49.93429 -96.18386 21874 ft 289 kts 87°
2026-05-06 01:49 49.93398 -96.15256 22087 ft 292 kts 87°
2026-05-06 01:49 49.93366 -96.12097 22291 ft 295 kts 87°
2026-05-06 01:49 49.93332 -96.08915 22504 ft 297 kts 87°
2026-05-06 01:50 49.93298 -96.05705 22711 ft 299 kts 87°
2026-05-06 01:50 49.93262 -96.02479 22914 ft 301 kts 87°
2026-05-06 01:50 49.93225 -95.99232 23115 ft 302 kts 87°
2026-05-06 01:50 49.93187 -95.95974 23319 ft 303 kts 88°
2026-05-06 01:51 49.93148 -95.92703 23527 ft 304 kts 88°
2026-05-06 01:51 49.93107 -95.89428 23729 ft 305 kts 88°
2026-05-06 01:51 49.93066 -95.86150 23933 ft 305 kts 88°
2026-05-06 01:51 49.93024 -95.82859 24134 ft 305 kts 88°
2026-05-06 01:52 49.92981 -95.79569 24335 ft 305 kts 88°
2026-05-06 01:52 49.92937 -95.76283 24537 ft 305 kts 88°
2026-05-06 01:52 49.92892 -95.73005 24734 ft 305 kts 88°
2026-05-06 01:52 49.92846 -95.69721 24932 ft 304 kts 88°
2026-05-06 01:53 49.92799 -95.66444 25129 ft 303 kts 88°
2026-05-06 01:53 49.92752 -95.63190 25327 ft 302 kts 88°
2026-05-06 01:53 49.92704 -95.59944 25522 ft 301 kts 88°
2026-05-06 01:53 49.92655 -95.56711 25717 ft 300 kts 88°
2026-05-06 01:54 49.92606 -95.53491 25913 ft 298 kts 88°
2026-05-06 01:54 49.92556 -95.50293 26107 ft 297 kts 88°
2026-05-06 01:54 49.92505 -95.47111 26303 ft 295 kts 88°
2026-05-06 01:54 49.92453 -95.43952 26498 ft 293 kts 88°
2026-05-06 01:55 49.92401 -95.40815 26695 ft 290 kts 88°
2026-05-06 01:55 49.92348 -95.37705 26880 ft 288 kts 88°
2026-05-06 01:55 49.92294 -95.34585 26936 ft 291 kts 89°
2026-05-06 01:55 49.92240 -95.31429 26949 ft 295 kts 89°
2026-05-06 01:56 49.92183 -95.28228 26952 ft 299 kts 89°
2026-05-06 01:56 49.92125 -95.24986 26952 ft 304 kts 89°
2026-05-06 01:56 49.92065 -95.21689 26954 ft 309 kts 89°
2026-05-06 01:56 49.92003 -95.18348 26953 ft 313 kts 90°
2026-05-06 01:57 49.91939 -95.14944 26941 ft 318 kts 90°
2026-05-06 01:57 49.91873 -95.11510 26940 ft 322 kts 90°
2026-05-06 01:57 49.91805 -95.08018 26939 ft 326 kts 90°
2026-05-06 01:57 49.91735 -95.04500 26938 ft 329 kts 90°
2026-05-06 01:58 49.91664 -95.00942 26937 ft 331 kts 90°
2026-05-06 01:58 49.91591 -94.97366 26937 ft 334 kts 90°
2026-05-06 01:58 49.91516 -94.93769 26933 ft 336 kts 90°
2026-05-06 01:58 49.91276 -94.90167 26931 ft 338 kts 99°
2026-05-06 01:59 49.90779 -94.86596 26933 ft 340 kts 101°
2026-05-06 01:59 49.90257 -94.83018 26932 ft 341 kts 101°
2026-05-06 01:59 49.89733 -94.79423 26934 ft 342 kts 101°
2026-05-06 01:59 49.89209 -94.75824 26934 ft 343 kts 101°
2026-05-06 02:00 49.88685 -94.72219 26934 ft 344 kts 101°
2026-05-06 02:00 49.88160 -94.68609 26939 ft 344 kts 101°
2026-05-06 02:00 49.87634 -94.64989 26943 ft 345 kts 101°
2026-05-06 02:00 49.87108 -94.61376 26945 ft 345 kts 101°
2026-05-06 02:01 49.86580 -94.57754 26948 ft 345 kts 101°
2026-05-06 02:01 49.86052 -94.54130 26946 ft 346 kts 101°
2026-05-06 02:01 49.85521 -94.50501 26945 ft 346 kts 101°
2026-05-06 02:01 49.84989 -94.46870 26945 ft 346 kts 101°
2026-05-06 02:02 49.84456 -94.43232 26943 ft 347 kts 101°
2026-05-06 02:02 49.83922 -94.39602 26944 ft 347 kts 101°
2026-05-06 02:02 49.83386 -94.35964 26940 ft 347 kts 101°
2026-05-06 02:02 49.82852 -94.32350 26936 ft 347 kts 102°
2026-05-06 02:03 49.82314 -94.28713 26942 ft 346 kts 102°
2026-05-06 02:03 49.81773 -94.25065 26939 ft 347 kts 102°
2026-05-06 02:03 49.81234 -94.21439 26938 ft 347 kts 102°
2026-05-06 02:03 49.80692 -94.17807 26929 ft 347 kts 102°
2026-05-06 02:04 49.80149 -94.14171 26924 ft 347 kts 102°
2026-05-06 02:04 49.79605 -94.10536 26923 ft 348 kts 102°
2026-05-06 02:04 49.79060 -94.06905 26920 ft 348 kts 102°
2026-05-06 02:04 49.78513 -94.03265 26916 ft 348 kts 102°
2026-05-06 02:05 49.77963 -93.99620 26914 ft 348 kts 102°
2026-05-06 02:05 49.77414 -93.95988 26915 ft 347 kts 102°
2026-05-06 02:05 49.76864 -93.92356 26915 ft 348 kts 102°
2026-05-06 02:05 49.76313 -93.88727 26917 ft 348 kts 102°
2026-05-06 02:06 49.75759 -93.85086 26914 ft 348 kts 102°
2026-05-06 02:06 49.75206 -93.81456 26917 ft 348 kts 102°
2026-05-06 02:06 49.74650 -93.77819 26916 ft 348 kts 102°
2026-05-06 02:06 49.74093 -93.74185 26913 ft 348 kts 102°
2026-05-06 02:07 49.73535 -93.70549 26912 ft 348 kts 102°
2026-05-06 02:07 49.72976 -93.66917 26915 ft 348 kts 102°
2026-05-06 02:07 49.72415 -93.63278 26906 ft 348 kts 102°
2026-05-06 02:07 49.71853 -93.59642 26908 ft 348 kts 102°
2026-05-06 02:08 49.71290 -93.56008 26903 ft 349 kts 102°
2026-05-06 02:08 49.70727 -93.52382 26900 ft 349 kts 102°
2026-05-06 02:08 49.70161 -93.48743 26893 ft 349 kts 102°
2026-05-06 02:08 49.69594 -93.45110 26893 ft 349 kts 102°
2026-05-06 02:09 49.69025 -93.41471 26892 ft 349 kts 102°
2026-05-06 02:09 49.68457 -93.37844 26892 ft 349 kts 102°
2026-05-06 02:09 49.67887 -93.34215 26893 ft 349 kts 102°
2026-05-06 02:09 49.67315 -93.30578 26891 ft 348 kts 102°
2026-05-06 02:10 49.66744 -93.26957 26891 ft 348 kts 102°
2026-05-06 02:10 49.66171 -93.23338 26893 ft 348 kts 103°
2026-05-06 02:10 49.65597 -93.19715 26896 ft 349 kts 102°
2026-05-06 02:10 49.65021 -93.16084 26891 ft 349 kts 103°
2026-05-06 02:11 49.64443 -93.12455 26893 ft 349 kts 103°
2026-05-06 02:11 49.63866 -93.08833 26894 ft 349 kts 103°
2026-05-06 02:11 49.63287 -93.05209 26890 ft 349 kts 103°
2026-05-06 02:11 49.62705 -93.01582 26891 ft 349 kts 103°
2026-05-06 02:12 49.62122 -92.97944 26890 ft 349 kts 103°
2026-05-06 02:12 49.61539 -92.94320 26889 ft 349 kts 103°
2026-05-06 02:12 49.60954 -92.90695 26889 ft 350 kts 103°
2026-05-06 02:12 49.60367 -92.87060 26889 ft 350 kts 103°
2026-05-06 02:13 49.59779 -92.83427 26885 ft 350 kts 103°
2026-05-06 02:13 49.59190 -92.79801 26883 ft 350 kts 103°
2026-05-06 02:13 49.58600 -92.76170 26884 ft 350 kts 103°
2026-05-06 02:13 49.58007 -92.72534 26880 ft 350 kts 103°
2026-05-06 02:14 49.57415 -92.68906 26878 ft 350 kts 103°
2026-05-06 02:14 49.56820 -92.65274 26880 ft 350 kts 103°
2026-05-06 02:14 49.56225 -92.61647 26880 ft 350 kts 103°
2026-05-06 02:14 49.55629 -92.58020 26880 ft 350 kts 103°
2026-05-06 02:15 49.55032 -92.54394 26882 ft 350 kts 103°
2026-05-06 02:15 49.54431 -92.50755 26885 ft 350 kts 103°
2026-05-06 02:15 49.53831 -92.47131 26886 ft 350 kts 103°
2026-05-06 02:15 49.53230 -92.43504 26884 ft 350 kts 103°
2026-05-06 02:16 49.52626 -92.39866 26875 ft 351 kts 103°
2026-05-06 02:16 49.52021 -92.36235 26877 ft 351 kts 103°
2026-05-06 02:16 49.51420 -92.32632 26877 ft 349 kts 103°
2026-05-06 02:16 49.50820 -92.29046 26876 ft 347 kts 103°
2026-05-06 02:17 49.50218 -92.25450 26876 ft 348 kts 104°
2026-05-06 02:17 49.49614 -92.21859 26875 ft 348 kts 104°
2026-05-06 02:17 49.49006 -92.18244 26874 ft 349 kts 104°
2026-05-06 02:17 49.48399 -92.14643 26866 ft 349 kts 104°
2026-05-06 02:18 49.47789 -92.11031 26868 ft 349 kts 104°
2026-05-06 02:18 49.47178 -92.07424 26866 ft 350 kts 104°
2026-05-06 02:18 49.46566 -92.03816 26864 ft 350 kts 104°
2026-05-06 02:18 49.45951 -92.00201 26866 ft 350 kts 104°
2026-05-06 02:19 49.45336 -91.96591 26859 ft 350 kts 104°
2026-05-06 02:19 49.44719 -91.92980 26858 ft 350 kts 104°
2026-05-06 02:19 49.44101 -91.89364 26859 ft 350 kts 104°
2026-05-06 02:19 49.43481 -91.85752 26855 ft 350 kts 104°
2026-05-06 02:20 49.42239 -91.78526 26850 ft 351 kts 104°
2026-05-06 02:20 49.41615 -91.74911 26846 ft 351 kts 104°
2026-05-06 02:20 49.40990 -91.71298 26846 ft 351 kts 104°
2026-05-06 02:21 49.40363 -91.67678 26849 ft 351 kts 104°
2026-05-06 02:21 49.39736 -91.64066 26844 ft 351 kts 104°
2026-05-06 02:21 49.39107 -91.60451 26843 ft 351 kts 104°
2026-05-06 02:21 49.38477 -91.56836 26848 ft 351 kts 104°
2026-05-06 02:22 49.37847 -91.53226 26850 ft 351 kts 104°
2026-05-06 02:22 49.37215 -91.49618 26851 ft 351 kts 104°
2026-05-06 02:22 49.36581 -91.46002 26849 ft 351 kts 104°
2026-05-06 02:22 49.35946 -91.42388 26848 ft 352 kts 104°
2026-05-06 02:23 49.35309 -91.38772 26843 ft 352 kts 104°
2026-05-06 02:23 49.34672 -91.35160 26839 ft 352 kts 104°
2026-05-06 02:23 49.34032 -91.31545 26844 ft 352 kts 104°
2026-05-06 02:23 49.33391 -91.27921 26843 ft 351 kts 104°
2026-05-06 02:24 49.32775 -91.24450 26840 ft 350 kts 105°
2026-05-06 02:24 49.32141 -91.20887 26836 ft 349 kts 105°
2026-05-06 02:24 49.31502 -91.17304 26841 ft 349 kts 105°
2026-05-06 02:24 49.30862 -91.13717 26836 ft 349 kts 105°
2026-05-06 02:25 49.30219 -91.10124 26832 ft 350 kts 105°
2026-05-06 02:25 49.29575 -91.06533 26835 ft 350 kts 105°
2026-05-06 02:25 49.28930 -91.02944 26838 ft 351 kts 105°
2026-05-06 02:25 49.28282 -90.99340 26843 ft 351 kts 105°
2026-05-06 02:26 49.27633 -90.95739 26844 ft 351 kts 105°
2026-05-06 02:26 49.26982 -90.92138 26838 ft 351 kts 105°
2026-05-06 02:26 49.26330 -90.88539 26833 ft 352 kts 105°
2026-05-06 02:26 49.25676 -90.84932 26838 ft 352 kts 105°
2026-05-06 02:27 49.25022 -90.81333 26830 ft 352 kts 105°
2026-05-06 02:27 49.24363 -90.77718 26829 ft 352 kts 105°
2026-05-06 02:27 49.23706 -90.74115 26828 ft 352 kts 105°
2026-05-06 02:27 49.23047 -90.70516 26830 ft 352 kts 105°
2026-05-06 02:28 49.22386 -90.66908 26830 ft 353 kts 105°
2026-05-06 02:28 49.21724 -90.63302 26828 ft 353 kts 105°
2026-05-06 02:28 49.21060 -90.59691 26830 ft 353 kts 105°
2026-05-06 02:28 49.20395 -90.56082 26828 ft 353 kts 105°
2026-05-06 02:29 49.19729 -90.52477 26827 ft 354 kts 105°
2026-05-06 02:29 49.19061 -90.48867 26824 ft 354 kts 105°
2026-05-06 02:29 49.18392 -90.45257 26822 ft 354 kts 105°
2026-05-06 02:29 49.17722 -90.41649 26827 ft 354 kts 105°
2026-05-06 02:30 49.17048 -90.38032 26824 ft 354 kts 105°
2026-05-06 02:30 49.16375 -90.34422 26818 ft 354 kts 106°
2026-05-06 02:30 49.15700 -90.30808 26820 ft 354 kts 106°
2026-05-06 02:30 49.15024 -90.27192 26816 ft 354 kts 105°
2026-05-06 02:31 49.14382 -90.23770 26821 ft 354 kts 106°
2026-05-06 02:31 49.13706 -90.20170 26814 ft 354 kts 106°
2026-05-06 02:31 49.13026 -90.16563 26818 ft 354 kts 106°
2026-05-06 02:31 49.12346 -90.12959 26813 ft 354 kts 106°
2026-05-06 02:32 49.11663 -90.09343 26811 ft 355 kts 106°
2026-05-06 02:32 49.10979 -90.05732 26818 ft 355 kts 106°
2026-05-06 02:32 49.10295 -90.02125 26821 ft 355 kts 106°
2026-05-06 02:32 49.09608 -89.98512 26816 ft 355 kts 106°
2026-05-06 02:33 49.08918 -89.94891 26814 ft 355 kts 106°
2026-05-06 02:33 49.08458 -89.92480 26809 ft 355 kts 106°
2026-05-06 02:33 49.06847 -89.84057 26814 ft 356 kts 106°
2026-05-06 02:34 49.06152 -89.80439 26813 ft 356 kts 106°
2026-05-06 02:34 49.05455 -89.76815 26815 ft 356 kts 106°
2026-05-06 02:34 49.04758 -89.73196 26811 ft 356 kts 106°
2026-05-06 02:34 49.04061 -89.69587 26810 ft 356 kts 106°
2026-05-06 02:35 49.03360 -89.65962 26812 ft 357 kts 106°
2026-05-06 02:35 49.02660 -89.62346 26813 ft 357 kts 106°
2026-05-06 02:35 49.01956 -89.58721 26806 ft 357 kts 106°
2026-05-06 02:35 49.01251 -89.55097 26807 ft 357 kts 106°
2026-05-06 02:36 49.00545 -89.51474 26806 ft 357 kts 106°
2026-05-06 02:36 48.99839 -89.47857 26803 ft 358 kts 106°
2026-05-06 02:36 48.99131 -89.44234 26805 ft 358 kts 106°
2026-05-06 02:36 48.98421 -89.40612 26803 ft 358 kts 106°
2026-05-06 02:37 48.97710 -89.36991 26801 ft 358 kts 106°
2026-05-06 02:37 48.96995 -89.33353 26801 ft 358 kts 107°
2026-05-06 02:37 48.96279 -89.29725 26806 ft 358 kts 107°
2026-05-06 02:37 48.95590 -89.26233 26806 ft 358 kts 107°
2026-05-06 02:38 48.94881 -89.22646 26801 ft 357 kts 107°
2026-05-06 02:38 48.94164 -89.19030 26800 ft 357 kts 107°
2026-05-06 02:38 48.93447 -89.15419 26801 ft 358 kts 107°
2026-05-06 02:38 48.92727 -89.11800 26801 ft 358 kts 107°
2026-05-06 02:39 48.92005 -89.08175 26798 ft 358 kts 107°
2026-05-06 02:39 48.91282 -89.04558 26796 ft 359 kts 107°
2026-05-06 02:39 48.90558 -89.00936 26798 ft 359 kts 107°
2026-05-06 02:39 48.89831 -88.97310 26799 ft 360 kts 107°
2026-05-06 02:40 48.89101 -88.93676 26799 ft 362 kts 107°
2026-05-06 02:40 48.88363 -88.90012 26795 ft 364 kts 107°
2026-05-06 02:40 48.87623 -88.86338 26803 ft 366 kts 107°
2026-05-06 02:40 48.86875 -88.82638 26800 ft 368 kts 107°
2026-05-06 02:41 48.86125 -88.78930 26802 ft 370 kts 107°
2026-05-06 02:41 48.85370 -88.75204 26806 ft 371 kts 107°
2026-05-06 02:41 48.84610 -88.71462 26805 ft 372 kts 107°
2026-05-06 02:41 48.83849 -88.67718 26806 ft 372 kts 107°
2026-05-06 02:42 48.83083 -88.63962 26808 ft 373 kts 107°
2026-05-06 02:42 48.82316 -88.60206 26815 ft 373 kts 107°
2026-05-06 02:42 48.81549 -88.56456 26822 ft 374 kts 107°
2026-05-06 02:42 48.80779 -88.52696 26822 ft 374 kts 107°
2026-05-06 02:43 48.80004 -88.48923 26825 ft 375 kts 107°
2026-05-06 02:43 48.79230 -88.45164 26821 ft 375 kts 107°
2026-05-06 02:43 48.78452 -88.41391 26817 ft 376 kts 107°
2026-05-06 02:43 48.77672 -88.37610 26814 ft 376 kts 107°
2026-05-06 02:44 48.76889 -88.33827 26808 ft 376 kts 108°
2026-05-06 02:44 48.76102 -88.30030 26808 ft 376 kts 108°
2026-05-06 02:44 48.75317 -88.26254 26805 ft 377 kts 108°
2026-05-06 02:44 48.74532 -88.22479 26803 ft 377 kts 108°
2026-05-06 02:45 48.73743 -88.18694 26801 ft 378 kts 108°
2026-05-06 02:45 48.72950 -88.14900 26801 ft 378 kts 108°
2026-05-06 02:45 48.72157 -88.11110 26801 ft 379 kts 108°
2026-05-06 02:45 48.71363 -88.07323 26799 ft 379 kts 108°
2026-05-06 02:46 48.70566 -88.03530 26802 ft 379 kts 108°
2026-05-06 02:46 48.69768 -87.99736 26797 ft 380 kts 108°
2026-05-06 02:46 48.68967 -87.95937 26788 ft 380 kts 108°
2026-05-06 02:46 48.68165 -87.92140 26796 ft 380 kts 108°
2026-05-06 02:47 48.67363 -87.88353 26805 ft 380 kts 108°
2026-05-06 02:47 48.66558 -87.84557 26804 ft 380 kts 108°
2026-05-06 02:47 48.65751 -87.80758 26816 ft 380 kts 108°
2026-05-06 02:47 48.64945 -87.76970 26814 ft 380 kts 108°
2026-05-06 02:48 48.64135 -87.73171 26815 ft 381 kts 108°
2026-05-06 02:48 48.63323 -87.69369 26821 ft 381 kts 108°
2026-05-06 02:48 48.62508 -87.65564 26818 ft 382 kts 108°
2026-05-06 02:48 48.61692 -87.61758 26814 ft 382 kts 108°
2026-05-06 02:49 48.60872 -87.57941 26822 ft 383 kts 109°
2026-05-06 02:49 48.60052 -87.54133 26815 ft 383 kts 108°
2026-05-06 02:49 48.59229 -87.50315 26811 ft 383 kts 108°
2026-05-06 02:49 48.58406 -87.46505 26812 ft 384 kts 108°
2026-05-06 02:50 48.57577 -87.42676 26810 ft 384 kts 108°
2026-05-06 02:50 48.56749 -87.38854 26817 ft 384 kts 108°
2026-05-06 02:50 48.55919 -87.35035 26812 ft 384 kts 108°
2026-05-06 02:50 48.55087 -87.31212 26809 ft 383 kts 109°
2026-05-06 02:51 48.54257 -87.27401 26811 ft 383 kts 109°
2026-05-06 02:51 48.53426 -87.23599 26810 ft 383 kts 109°
2026-05-06 02:51 48.52591 -87.19784 26809 ft 384 kts 109°
2026-05-06 02:51 48.51756 -87.15977 26810 ft 384 kts 109°
2026-05-06 02:52 48.50918 -87.12161 26812 ft 384 kts 109°
2026-05-06 02:52 48.50079 -87.08345 26808 ft 385 kts 109°
2026-05-06 02:52 48.49237 -87.04529 26808 ft 385 kts 109°
2026-05-06 02:52 48.48394 -87.00710 26807 ft 385 kts 109°
2026-05-06 02:53 48.47547 -86.96882 26811 ft 386 kts 109°
2026-05-06 02:53 48.46697 -86.93048 26809 ft 386 kts 109°
2026-05-06 02:53 48.45848 -86.89226 26806 ft 386 kts 109°
2026-05-06 02:53 48.44995 -86.85391 26807 ft 387 kts 109°
2026-05-06 02:54 48.44141 -86.81562 26810 ft 387 kts 109°
2026-05-06 02:54 48.43286 -86.77734 26804 ft 387 kts 109°
2026-05-06 02:54 48.42427 -86.73893 26805 ft 387 kts 109°
2026-05-06 02:54 48.41569 -86.70064 26808 ft 387 kts 110°
2026-05-06 02:55 48.40708 -86.66230 26809 ft 387 kts 109°
2026-05-06 02:55 48.39845 -86.62392 26809 ft 388 kts 109°
2026-05-06 02:55 48.38981 -86.58557 26805 ft 388 kts 110°
2026-05-06 02:55 48.38114 -86.54719 26806 ft 388 kts 110°
2026-05-06 02:56 48.37247 -86.50885 26805 ft 388 kts 110°
2026-05-06 02:56 48.36379 -86.47052 26806 ft 388 kts 110°
2026-05-06 02:56 48.35508 -86.43217 26801 ft 389 kts 110°
2026-05-06 02:56 48.34633 -86.39370 26797 ft 389 kts 110°
2026-05-06 02:57 48.33759 -86.35529 26797 ft 389 kts 110°
2026-05-06 02:57 48.32899 -86.31762 26795 ft 388 kts 110°
2026-05-06 02:57 48.32044 -86.28019 26794 ft 386 kts 110°
2026-05-06 02:57 48.31170 -86.24207 26795 ft 387 kts 110°
2026-05-06 02:58 48.30294 -86.20386 26787 ft 388 kts 110°
2026-05-06 02:58 48.29415 -86.16561 26789 ft 388 kts 110°
2026-05-06 02:58 48.28533 -86.12731 26783 ft 389 kts 110°
2026-05-06 02:58 48.27651 -86.08907 26779 ft 389 kts 110°
2026-05-06 02:59 48.26765 -86.05070 26776 ft 389 kts 111°
2026-05-06 02:59 48.25879 -86.01245 26775 ft 389 kts 111°
2026-05-06 02:59 48.24990 -85.97412 26771 ft 390 kts 111°
2026-05-06 02:59 48.24099 -85.93576 26772 ft 390 kts 111°
2026-05-06 03:00 48.23209 -85.89750 26773 ft 390 kts 111°
2026-05-06 03:00 48.22316 -85.85922 26774 ft 389 kts 110°
2026-05-06 03:00 48.21423 -85.82097 26770 ft 390 kts 110°
2026-05-06 03:00 48.20528 -85.78269 26771 ft 390 kts 110°
2026-05-06 03:01 48.19631 -85.74444 26776 ft 390 kts 110°
2026-05-06 03:01 48.18730 -85.70607 26775 ft 390 kts 111°
2026-05-06 03:01 48.17827 -85.66769 26774 ft 391 kts 110°
2026-05-06 03:01 48.16921 -85.62923 26773 ft 391 kts 111°
2026-05-06 03:02 48.16016 -85.59087 26771 ft 392 kts 111°
2026-05-06 03:02 48.15110 -85.55255 26768 ft 392 kts 111°
2026-05-06 03:02 48.14200 -85.51413 26778 ft 392 kts 111°
2026-05-06 03:02 48.13292 -85.47585 26771 ft 392 kts 111°
2026-05-06 03:03 48.12378 -85.43742 26774 ft 392 kts 111°
2026-05-06 03:03 48.11462 -85.39897 26777 ft 393 kts 111°
2026-05-06 03:03 48.10544 -85.36048 26775 ft 393 kts 111°
2026-05-06 03:03 48.09635 -85.32242 26772 ft 392 kts 112°
2026-05-06 03:04 48.08726 -85.28444 26773 ft 390 kts 112°
2026-05-06 03:04 48.07808 -85.24614 26774 ft 391 kts 111°
2026-05-06 03:04 48.06890 -85.20792 26775 ft 392 kts 112°
2026-05-06 03:04 48.05968 -85.16964 26778 ft 392 kts 112°
2026-05-06 03:05 48.05043 -85.13126 26781 ft 393 kts 112°
2026-05-06 03:05 48.04117 -85.09291 26790 ft 393 kts 112°
2026-05-06 03:05 48.03188 -85.05451 26785 ft 394 kts 112°
2026-05-06 03:05 48.02259 -85.01614 26781 ft 394 kts 112°
2026-05-06 03:06 48.01323 -84.97762 26781 ft 394 kts 112°
2026-05-06 03:06 48.00388 -84.93915 26790 ft 395 kts 112°
2026-05-06 03:06 47.99450 -84.90063 26776 ft 395 kts 112°
2026-05-06 03:06 47.98513 -84.86222 26807 ft 395 kts 112°
2026-05-06 03:07 47.97573 -84.82378 26806 ft 395 kts 112°
2026-05-06 03:07 47.96632 -84.78533 26801 ft 396 kts 112°
2026-05-06 03:07 47.95745 -84.74633 26807 ft 397 kts 109°
2026-05-06 03:07 47.94921 -84.70705 26781 ft 398 kts 109°
2026-05-06 03:08 47.94099 -84.66782 26780 ft 397 kts 109°
2026-05-06 03:08 47.93272 -84.62862 26772 ft 398 kts 109°
2026-05-06 03:08 47.92442 -84.58940 26787 ft 397 kts 109°
2026-05-06 03:08 47.91606 -84.55015 26788 ft 398 kts 109°
2026-05-06 03:09 47.90767 -84.51086 26765 ft 398 kts 109°
2026-05-06 03:09 47.89928 -84.47171 26786 ft 398 kts 109°
2026-05-06 03:09 47.89083 -84.43232 26784 ft 397 kts 109°
2026-05-06 03:09 47.88243 -84.39333 26771 ft 396 kts 109°
2026-05-06 03:10 47.87401 -84.35434 26779 ft 397 kts 109°
2026-05-06 03:10 47.86555 -84.31527 26758 ft 396 kts 110°
2026-05-06 03:10 47.85706 -84.27614 26790 ft 395 kts 110°
2026-05-06 03:10 47.84859 -84.23719 26784 ft 396 kts 110°
2026-05-06 03:11 47.84009 -84.19816 26780 ft 397 kts 110°
2026-05-06 03:11 47.83157 -84.15913 26787 ft 398 kts 110°
2026-05-06 03:11 47.82299 -84.11992 26798 ft 399 kts 110°
2026-05-06 03:11 47.81440 -84.08072 26760 ft 400 kts 111°
2026-05-06 03:12 47.80580 -84.04155 26792 ft 400 kts 110°
2026-05-06 03:12 47.79718 -84.00235 26771 ft 401 kts 111°
2026-05-06 03:12 47.78852 -83.96303 26757 ft 401 kts 111°
2026-05-06 03:12 47.77983 -83.92367 26792 ft 401 kts 111°
2026-05-06 03:13 47.77110 -83.88424 26782 ft 403 kts 111°
2026-05-06 03:13 47.76233 -83.84465 26776 ft 403 kts 110°
2026-05-06 03:13 47.75354 -83.80507 26751 ft 403 kts 111°
2026-05-06 03:13 47.74476 -83.76562 26750 ft 403 kts 111°
2026-05-06 03:14 47.73596 -83.72613 26740 ft 404 kts 111°
2026-05-06 03:14 47.72713 -83.68658 26762 ft 404 kts 111°
2026-05-06 03:14 47.71827 -83.64698 26759 ft 405 kts 111°
2026-05-06 03:14 47.70942 -83.60747 26762 ft 405 kts 111°
2026-05-06 03:15 47.70052 -83.56783 26757 ft 405 kts 111°
2026-05-06 03:15 47.69160 -83.52822 26754 ft 406 kts 111°
2026-05-06 03:15 47.68267 -83.48861 26775 ft 405 kts 111°
2026-05-06 03:15 47.67373 -83.44900 26773 ft 406 kts 111°
2026-05-06 03:16 47.66475 -83.40933 26755 ft 406 kts 111°
2026-05-06 03:16 47.65579 -83.36979 26752 ft 407 kts 111°
2026-05-06 03:16 47.64675 -83.32997 26748 ft 407 kts 112°
2026-05-06 03:16 47.63777 -83.29052 26772 ft 405 kts 112°
2026-05-06 03:17 47.62876 -83.25100 26755 ft 405 kts 112°
2026-05-06 03:17 47.61974 -83.21150 26739 ft 406 kts 112°
2026-05-06 03:17 47.61068 -83.17187 26757 ft 406 kts 112°
2026-05-06 03:17 47.60159 -83.13223 26754 ft 407 kts 112°
2026-05-06 03:18 47.59250 -83.09267 26766 ft 407 kts 112°
2026-05-06 03:18 47.58338 -83.05300 26760 ft 407 kts 112°
2026-05-06 03:18 47.57420 -83.01320 26739 ft 408 kts 112°
2026-05-06 03:18 47.56506 -82.97360 26740 ft 408 kts 113°
2026-05-06 03:19 47.55588 -82.93390 26735 ft 409 kts 113°
2026-05-06 03:19 47.54669 -82.89426 26779 ft 408 kts 113°
2026-05-06 03:19 47.53746 -82.85450 26756 ft 409 kts 113°
2026-05-06 03:19 47.52820 -82.81473 26787 ft 410 kts 113°
2026-05-06 03:20 47.50962 -82.73507 26768 ft 410 kts 114°
2026-05-06 03:20 47.50032 -82.69529 26770 ft 411 kts 114°
2026-05-06 03:20 47.49098 -82.65545 26791 ft 412 kts 113°
2026-05-06 03:21 47.48158 -82.61544 26768 ft 412 kts 114°
2026-05-06 03:21 47.47219 -82.57551 26756 ft 413 kts 114°
2026-05-06 03:21 47.46276 -82.53546 26769 ft 413 kts 114°
2026-05-06 03:21 47.45330 -82.49542 26783 ft 414 kts 113°
2026-05-06 03:22 47.44383 -82.45537 26773 ft 414 kts 114°
2026-05-06 03:22 47.43433 -82.41526 26776 ft 415 kts 114°
2026-05-06 03:22 47.42480 -82.37512 26762 ft 415 kts 114°
2026-05-06 03:22 47.41529 -82.33509 26768 ft 414 kts 115°
2026-05-06 03:23 47.40587 -82.29549 26770 ft 413 kts 115°
2026-05-06 03:23 47.39652 -82.25633 26782 ft 411 kts 115°
2026-05-06 03:23 47.38696 -82.21638 26783 ft 413 kts 115°
2026-05-06 03:23 47.37741 -82.17651 26771 ft 413 kts 115°
2026-05-06 03:24 47.36784 -82.13663 26758 ft 414 kts 116°
2026-05-06 03:24 47.35825 -82.09675 26796 ft 413 kts 116°
2026-05-06 03:24 47.34864 -82.05685 26781 ft 415 kts 115°
2026-05-06 03:24 47.33897 -82.01680 26782 ft 416 kts 116°
2026-05-06 03:25 47.32925 -81.97658 26779 ft 416 kts 116°
2026-05-06 03:25 47.31951 -81.93636 26782 ft 417 kts 116°
2026-05-06 03:25 47.30973 -81.89603 26753 ft 418 kts 116°
2026-05-06 03:25 47.29997 -81.85588 26782 ft 418 kts 116°
2026-05-06 03:26 47.29017 -81.81560 26787 ft 418 kts 116°
2026-05-06 03:26 47.28034 -81.77532 26773 ft 419 kts 116°
2026-05-06 03:26 47.27048 -81.73493 26774 ft 420 kts 116°
2026-05-06 03:26 47.26060 -81.69461 26777 ft 421 kts 117°
2026-05-06 03:27 47.25066 -81.65407 26777 ft 422 kts 116°
2026-05-06 03:27 47.24071 -81.61357 26771 ft 422 kts 116°
2026-05-06 03:27 47.23074 -81.57305 26771 ft 422 kts 117°
2026-05-06 03:27 47.22072 -81.53240 26779 ft 423 kts 117°
2026-05-06 03:28 47.21070 -81.49185 26789 ft 424 kts 117°
2026-05-06 03:28 47.20062 -81.45113 26779 ft 424 kts 117°
2026-05-06 03:28 47.19053 -81.41043 26779 ft 425 kts 117°
2026-05-06 03:28 47.18041 -81.36966 26779 ft 425 kts 117°
2026-05-06 03:29 47.17025 -81.32887 26783 ft 425 kts 118°
2026-05-06 03:29 47.16008 -81.28798 26778 ft 423 kts 118°
2026-05-06 03:29 47.15003 -81.24773 26801 ft 423 kts 119°
2026-05-06 03:29 47.13990 -81.20724 26777 ft 424 kts 118°
2026-05-06 03:30 47.12972 -81.16662 26770 ft 424 kts 118°
2026-05-06 03:30 47.11951 -81.12595 26789 ft 424 kts 119°
2026-05-06 03:30 47.10927 -81.08527 26772 ft 425 kts 118°
2026-05-06 03:30 47.09901 -81.04453 26765 ft 425 kts 119°
2026-05-06 03:31 47.08876 -81.00392 26748 ft 426 kts 119°
2026-05-06 03:31 47.07847 -80.96323 26764 ft 427 kts 119°
2026-05-06 03:31 47.06815 -80.92249 26767 ft 427 kts 119°
2026-05-06 03:31 47.05782 -80.88178 26772 ft 427 kts 120°
2026-05-06 03:32 47.04742 -80.84089 26781 ft 428 kts 120°
2026-05-06 03:32 47.03703 -80.80008 26776 ft 428 kts 120°
2026-05-06 03:32 47.02658 -80.75913 26773 ft 429 kts 120°
2026-05-06 03:32 47.01613 -80.71824 26778 ft 430 kts 120°
2026-05-06 03:33 47.00562 -80.67720 26771 ft 431 kts 120°
2026-05-06 03:33 46.99513 -80.63628 26762 ft 432 kts 120°
2026-05-06 03:33 46.98457 -80.59516 26773 ft 432 kts 121°
2026-05-06 03:33 46.97401 -80.55414 26795 ft 432 kts 121°
2026-05-06 03:34 46.96341 -80.51304 26808 ft 432 kts 121°
2026-05-06 03:34 46.95275 -80.47181 26788 ft 434 kts 121°
2026-05-06 03:34 46.94205 -80.43047 26774 ft 435 kts 121°
2026-05-06 03:34 46.93134 -80.38917 26784 ft 436 kts 121°
2026-05-06 03:35 46.92087 -80.34884 26789 ft 436 kts 122°
2026-05-06 03:35 46.90978 -80.30620 26790 ft 435 kts 122°
2026-05-06 03:35 46.89902 -80.26490 26795 ft 435 kts 123°
2026-05-06 03:35 46.88936 -80.22787 26775 ft 436 kts 122°
2026-05-06 03:36 46.87864 -80.18687 26782 ft 435 kts 123°
2026-05-06 03:36 46.86785 -80.14565 26778 ft 435 kts 122°
2026-05-06 03:36 46.85712 -80.10479 26787 ft 434 kts 122°
2026-05-06 03:36 46.84626 -80.06348 26807 ft 434 kts 123°
2026-05-06 03:37 46.83538 -80.02223 26803 ft 435 kts 123°
2026-05-06 03:37 46.82451 -79.98103 26776 ft 437 kts 122°
2026-05-06 03:37 46.81360 -79.93975 26788 ft 437 kts 123°
2026-05-06 03:37 46.80262 -79.89830 26795 ft 438 kts 123°
2026-05-06 03:38 46.79162 -79.85686 26795 ft 439 kts 123°
2026-05-06 03:38 46.78059 -79.81535 26812 ft 439 kts 123°
2026-05-06 03:38 46.76941 -79.77334 26816 ft 440 kts 123°
2026-05-06 03:38 46.75830 -79.73166 26771 ft 440 kts 122°
2026-05-06 03:39 46.74724 -79.69022 26791 ft 440 kts 123°
2026-05-06 03:39 46.73612 -79.64865 26811 ft 440 kts 123°
2026-05-06 03:39 46.72498 -79.60713 26799 ft 441 kts 123°
2026-05-06 03:39 46.71382 -79.56557 26802 ft 441 kts 123°
2026-05-06 03:40 46.70257 -79.52375 26794 ft 441 kts 123°
2026-05-06 03:40 46.69139 -79.48224 26799 ft 441 kts 123°
2026-05-06 03:40 46.68014 -79.44056 26808 ft 441 kts 123°
2026-05-06 03:40 46.66892 -79.39908 26790 ft 442 kts 123°
2026-05-06 03:41 46.65765 -79.35747 26790 ft 442 kts 123°
2026-05-06 03:41 46.64639 -79.31595 26787 ft 440 kts 124°
2026-05-06 03:41 46.63534 -79.27522 26793 ft 437 kts 124°
2026-05-06 03:41 46.62411 -79.23398 26788 ft 437 kts 124°
2026-05-06 03:42 46.61292 -79.19295 26792 ft 436 kts 124°
2026-05-06 03:42 46.60175 -79.15210 26790 ft 437 kts 124°
2026-05-06 03:42 46.59063 -79.11139 26770 ft 431 kts 124°
2026-05-06 03:42 46.57971 -79.07131 26774 ft 426 kts 124°
2026-05-06 03:43 46.56877 -79.03138 26780 ft 423 kts 125°
2026-05-06 03:43 46.55793 -78.99197 26795 ft 420 kts 126°
2026-05-06 03:43 46.54711 -78.95272 26766 ft 419 kts 125°
2026-05-06 03:43 46.53620 -78.91334 26659 ft 421 kts 125°
2026-05-06 03:44 46.52529 -78.87399 26528 ft 423 kts 125°
2026-05-06 03:44 46.51430 -78.83443 26417 ft 424 kts 125°
2026-05-06 03:44 46.50332 -78.79484 26295 ft 422 kts 125°
2026-05-06 03:44 46.49243 -78.75552 26197 ft 420 kts 124°
2026-05-06 03:45 46.48150 -78.71625 26055 ft 420 kts 125°
2026-05-06 03:45 46.47060 -78.67709 25922 ft 419 kts 124°
2026-05-06 03:45 46.45967 -78.63795 25823 ft 418 kts 124°
2026-05-06 03:45 46.44874 -78.59889 25698 ft 418 kts 124°
2026-05-06 03:46 46.43783 -78.55995 25575 ft 418 kts 124°
2026-05-06 03:46 46.42693 -78.52110 25446 ft 418 kts 124°
2026-05-06 03:46 46.41596 -78.48214 25347 ft 419 kts 124°
2026-05-06 03:46 46.40494 -78.44304 25220 ft 421 kts 124°
2026-05-06 03:47 46.39379 -78.40354 25101 ft 421 kts 124°
2026-05-06 03:47 46.38268 -78.36423 24981 ft 422 kts 124°
2026-05-06 03:47 46.37186 -78.32595 24865 ft 421 kts 125°
2026-05-06 03:47 46.36074 -78.28664 24724 ft 420 kts 125°
2026-05-06 03:48 46.34971 -78.24767 24618 ft 417 kts 124°
2026-05-06 03:48 46.33878 -78.20914 24514 ft 414 kts 125°
2026-05-06 03:48 46.32781 -78.17057 24368 ft 414 kts 124°
2026-05-06 03:48 46.31620 -78.13285 24255 ft 406 kts 130°
2026-05-06 03:49 46.30331 -78.09690 24141 ft 402 kts 131°
2026-05-06 03:49 46.29033 -78.06120 24033 ft 401 kts 130°
2026-05-06 03:49 46.27737 -78.02549 23923 ft 401 kts 130°
2026-05-06 03:49 46.26447 -77.98982 23813 ft 401 kts 130°
2026-05-06 03:50 46.25154 -77.95402 23693 ft 403 kts 130°
2026-05-06 03:50 46.23859 -77.91819 23579 ft 406 kts 130°
2026-05-06 03:50 46.22552 -77.88197 23460 ft 408 kts 130°
2026-05-06 03:50 46.21236 -77.84546 23349 ft 410 kts 129°
2026-05-06 03:51 46.19919 -77.80891 23230 ft 412 kts 129°
2026-05-06 03:51 46.18596 -77.77220 23119 ft 413 kts 129°
2026-05-06 03:51 46.17267 -77.73535 22982 ft 414 kts 129°
2026-05-06 03:51 46.15938 -77.69853 22853 ft 415 kts 129°
2026-05-06 03:52 46.14623 -77.66194 22736 ft 408 kts 129°
2026-05-06 03:52 46.13330 -77.62595 22630 ft 400 kts 129°
2026-05-06 03:52 46.12057 -77.59059 22518 ft 393 kts 129°
2026-05-06 03:52 46.10801 -77.55587 22389 ft 389 kts 130°
2026-05-06 03:53 46.09555 -77.52152 22287 ft 388 kts 130°
2026-05-06 03:53 46.08291 -77.48697 22184 ft 392 kts 130°
2026-05-06 03:53 46.07008 -77.45198 22068 ft 397 kts 129°
2026-05-06 03:53 46.05719 -77.41674 21966 ft 400 kts 129°
2026-05-06 03:54 46.04418 -77.38119 21857 ft 403 kts 129°
2026-05-06 03:54 46.03110 -77.34543 21718 ft 404 kts 129°
2026-05-06 03:54 46.01805 -77.30966 21614 ft 397 kts 129°
2026-05-06 03:54 46.00542 -77.27477 21492 ft 386 kts 130°
2026-05-06 03:55 45.99306 -77.24084 21372 ft 380 kts 129°
2026-05-06 03:55 45.98082 -77.20743 21276 ft 375 kts 130°
2026-05-06 03:55 45.96874 -77.17454 21175 ft 371 kts 130°
2026-05-06 03:55 45.95677 -77.14204 21066 ft 368 kts 130°
2026-05-06 03:56 45.94475 -77.10951 20961 ft 369 kts 130°
2026-05-06 03:56 45.93265 -77.07693 20852 ft 372 kts 130°
2026-05-06 03:56 45.92043 -77.04408 20590 ft 379 kts 130°
2026-05-06 03:56 45.90791 -77.01050 20187 ft 383 kts 130°
2026-05-06 03:57 45.89540 -76.97680 19770 ft 385 kts 129°
2026-05-06 03:57 45.88288 -76.94297 19380 ft 384 kts 129°
2026-05-06 03:57 45.87029 -76.90905 18991 ft 383 kts 129°
2026-05-06 03:57 45.85780 -76.87543 18620 ft 381 kts 129°
2026-05-06 03:58 45.84538 -76.84199 18224 ft 378 kts 129°
2026-05-06 03:58 45.83305 -76.80886 17837 ft 376 kts 129°
2026-05-06 03:58 45.82079 -76.77597 17483 ft 373 kts 129°
2026-05-06 03:58 45.80856 -76.74327 17131 ft 372 kts 129°
2026-05-06 03:59 45.79645 -76.71089 16850 ft 370 kts 128°
2026-05-06 03:59 45.78427 -76.67846 16503 ft 370 kts 128°
2026-05-06 03:59 45.77204 -76.64598 16133 ft 372 kts 128°
2026-05-06 03:59 45.75970 -76.61324 15757 ft 374 kts 128°
2026-05-06 04:00 45.74738 -76.58053 15368 ft 376 kts 128°
2026-05-06 04:00 45.73493 -76.54750 14990 ft 376 kts 127°
2026-05-06 04:00 45.72249 -76.51453 14602 ft 377 kts 127°
2026-05-06 04:00 45.71006 -76.48160 14238 ft 376 kts 127°
2026-05-06 04:01 45.69764 -76.44878 13861 ft 376 kts 127°
2026-05-06 04:01 45.68527 -76.41605 13466 ft 373 kts 127°
2026-05-06 04:01 45.67310 -76.38385 13099 ft 365 kts 126°
2026-05-06 04:01 45.66121 -76.35241 12735 ft 356 kts 126°
2026-05-06 04:02 45.64967 -76.32180 12372 ft 340 kts 127°
2026-05-06 04:02 45.63869 -76.29271 12036 ft 326 kts 127°
2026-05-06 04:02 45.62811 -76.26483 11730 ft 316 kts 127°
2026-05-06 04:02 45.61762 -76.23748 11415 ft 312 kts 127°
2026-05-06 04:03 45.60726 -76.21045 11101 ft 308 kts 127°
2026-05-06 04:03 45.59704 -76.18383 10807 ft 305 kts 126°
2026-05-06 04:03 45.58689 -76.15739 10497 ft 302 kts 126°
2026-05-06 04:03 45.57682 -76.13118 10180 ft 300 kts 126°
2026-05-06 04:04 45.56686 -76.10525 9896 ft 297 kts 125°
2026-05-06 04:04 45.55696 -76.07953 9601 ft 295 kts 125°
2026-05-06 04:04 45.54714 -76.05402 9295 ft 292 kts 125°
2026-05-06 04:04 45.53740 -76.02872 8998 ft 290 kts 124°
2026-05-06 04:05 45.52774 -76.00368 8712 ft 288 kts 124°
2026-05-06 04:05 45.51809 -75.97870 8423 ft 287 kts 123°
2026-05-06 04:05 45.50849 -75.95385 8122 ft 286 kts 123°
2026-05-06 04:05 45.49890 -75.92905 7841 ft 285 kts 123°
2026-05-06 04:06 45.48942 -75.90450 7550 ft 280 kts 122°
2026-05-06 04:06 45.48051 -75.88020 7258 ft 276 kts 116°
2026-05-06 04:06 45.47494 -75.85433 6984 ft 271 kts 106°
2026-05-06 04:06 45.47047 -75.82843 6731 ft 267 kts 105°
2026-05-06 04:07 45.46606 -75.80284 6484 ft 266 kts 105°
2026-05-06 04:07 45.46164 -75.77735 6221 ft 265 kts 105°
2026-05-06 04:07 45.45725 -75.75204 5951 ft 260 kts 105°
2026-05-06 04:07 45.45391 -75.72739 5650 ft 249 kts 92°
2026-05-06 04:08 45.45568 -75.70341 5432 ft 243 kts 79°
2026-05-06 04:08 45.45857 -75.67978 5178 ft 242 kts 79°
2026-05-06 04:08 45.46150 -75.65617 4954 ft 244 kts 78°
2026-05-06 04:08 45.46448 -75.63211 4585 ft 247 kts 78°
2026-05-06 04:09 45.46743 -75.60826 4219 ft 242 kts 78°
2026-05-06 04:09 45.47030 -75.58483 3874 ft 239 kts 78°
2026-05-06 04:09 45.47311 -75.56171 3526 ft 236 kts 78°
2026-05-06 04:09 45.47458 -75.53877 3200 ft 230 kts 97°
2026-05-06 04:10 45.46745 -75.51990 3073 ft 212 kts 142°
2026-05-06 04:10 45.45561 -75.50771 3045 ft 210 kts 149°
2026-05-06 04:10 45.44346 -75.49616 3028 ft 210 kts 150°
2026-05-06 04:10 45.43122 -75.48474 3013 ft 210 kts 150°
2026-05-06 04:11 45.41843 -75.47481 2860 ft 209 kts 170°
2026-05-06 04:11 45.40516 -75.47731 2736 ft 188 kts 218°
2026-05-06 04:11 45.39655 -75.49060 2616 ft 183 kts 237°
2026-05-06 04:11 45.38915 -75.50576 2465 ft 188 kts 238°
2026-05-06 04:12 45.38182 -75.52121 2284 ft 187 kts 238°
2026-05-06 04:12 45.37484 -75.53601 2094 ft 172 kts 238°
2026-05-06 04:12 45.36844 -75.54980 1920 ft 162 kts 238°
2026-05-06 04:12 45.36241 -75.56287 1732 ft 153 kts 239°
2026-05-06 04:13 45.35676 -75.57514 1519 ft 144 kts 239°
2026-05-06 04:13 45.35143 -75.58685 1324 ft 137 kts 239°
2026-05-06 04:13 45.34639 -75.59798 1137 ft 131 kts 239°
2026-05-06 04:13 45.34131 -75.60898 981 ft 136 kts 237°
2026-05-06 04:14 45.33603 -75.62035 798 ft 138 kts 238°
2026-05-06 04:14 45.33102 -75.63176 628 ft 134 kts 238°
2026-05-06 04:14 45.32609 -75.64278 444 ft 130 kts 237°
2026-05-06 04:14 45.32151 -75.65297 373 ft 111 kts 237°
2026-05-06 04:15 45.31834 -75.66001 373 ft 51 kts 237°
2026-05-06 04:15 45.31738 -75.66237 374 ft 17 kts 260°
2026-05-06 04:15 45.31764 -75.66348 375 ft 7 kts 303°
2026-05-06 04:15 45.31794 -75.66406 376 ft 7 kts 309°
2026-05-06 04:16 45.31824 -75.66453 376 ft 5 kts 321°
2026-05-06 04:16 45.31882 -75.66489 376 ft 9 kts 327°
2026-05-06 04:16 45.31926 -75.66552 377 ft 8 kts 307°
2026-05-06 04:16 45.31957 -75.66610 378 ft 6 kts 307°
2026-05-06 04:17 45.31983 -75.66657 378 ft 5 kts 312°
2026-05-06 04:17 45.32016 -75.66665 378 ft 5 kts 22°
2026-05-06 04:17 45.32050 -75.66635 378 ft 5 kts 35°
2026-05-06 04:17 45.32073 -75.66611 378 ft 0 kts 37°